Flag for Switzerland Weather past 2 weeks in Vevey, Vaud, Switzerland

Now
63 °F

Mild.


Feels Like: 63 °F
Forecast: 60 / 78 °F
Wind: 1 mph from South

Location: Aigle

Current Time: Aug 30, 2014 at 12:49:31 AM

Latest Report: Aug 30, 2014 at 12:00 AM


Visibility: N/A

Pressure: 30.11 "Hg

Humidity: 98%

Dew point: 62 °F

Location of VeveyLocation

Historic Weather in Vevey — Graph

°F

Vevey temperature yesterday

Maximum temperature yesterday: 72 °F (at 12:00 PM)
Minimum temperature yesterday: 58 °F (at 1:00 AM)
Average temperature yesterday: 65 °F

Past Weeks' High & Low Weather Summary

 TemperatureHumidityPressure
High74 °F (Aug 18, 5:00 PM)98% (Aug 21, 7:00 AM)30.21 "Hg (Aug 21, 7:00 AM)
Low47 °F (Aug 17, 7:00 AM)38% (Aug 21, 4:00 PM)29.81 "Hg (Aug 18, 6:00 PM)
Average61 °F77%30.02 "Hg
* Reported Aug 14 11:00 PM — Aug 29 11:00 PM, Vevey, Weather by CustomWeather, © 2014

Note: Actual official high and low records may vary slightly from our data, if they occured in-between our weather recording intervals... More about our weather records

Advertising

Vevey weather history for previous 24 hours

 ConditionsComfort  
Time TempWeatherWind HumidityBarometerVisibility
11:00 PM
Aug 29
64 °FMild.3 mph97%30.10 "HgN/A
9:00 PM65 °FMild.2 mph95%30.07 "HgN/A
8:00 PM65 °FOvercast.2 mph95%30.05 "Hg12 mi
7:00 PM66 °FMild.5 mph95%30.05 "HgN/A
6:00 PM66 °FMild.5 mph91%30.04 "HgN/A
5:00 PM68 °FOvercast.1 mph84%30.03 "Hg12 mi
4:00 PM70 °FMild.3 mph76%30.03 "HgN/A
3:00 PM72 °FMild.3 mph66%30.03 "HgN/A
2:00 PM70 °FOvercast.2 mph68%30.05 "Hg11 mi
1:00 PM71 °FMild.3 mph71%30.04 "HgN/A
12:00 PM72 °FMild.3 mph65%30.04 "HgN/A
11:00 AM69 °FOvercast.3 mph67%30.05 "Hg12 mi
10:00 AM66 °FMild.5 mph77%30.06 "HgN/A
9:00 AM65 °FMild.3 mph79%30.07 "HgN/A
8:00 AM62 °FOvercast.2 mph86%30.06 "Hg19 mi
7:00 AM64 °FMild.3 mph76%30.05 "HgN/A
6:00 AM65 °FMild.6 mph74%30.03 "HgN/A
5:00 AM63 °FFog.3 mph80%30.04 "Hg5 mi
4:00 AM61 °FCool.3 mph86%30.05 "HgN/A
3:00 AM61 °FCool.5 mph87%30.06 "HgN/A
2:00 AM58 °FCool.3 mph93%30.08 "HgN/A
1:00 AM58 °FCool.1 mph95%30.08 "HgN/A
12:00 AM61 °FCool.5 mph91%30.07 "HgN/A
Weather by CustomWeather, © 2014

See weather overviewHow to use our weather pages